EST,Max TemperatureF,Mean TemperatureF,Min TemperatureF,Max Dew PointF,MeanDew PointF,Min DewpointF,Max Humidity, Mean Humidity, Min Humidity, Max Sea Level PressureIn, Mean Sea Level PressureIn, Min Sea Level PressureIn, Max VisibilityMiles, Mean VisibilityMiles, Min VisibilityMiles, Max Wind SpeedMPH, Mean Wind SpeedMPH, Max Gust SpeedMPH,PrecipitationIn, CloudCover, Events, WindDirDegrees
2013-2-1,21,14,5,18,5,0,86,68,53,30.34,30.17,29.83,10,9,2,18,10,28,0.00,5,,254
2013-2-2,23,12,1,21,11,-2,93,82,68,30.31,30.12,29.97,10,7,2,15,4,21,0.00,6,,205
2013-2-3,26,22,17,21,17,9,93,81,63,30.04,29.91,29.83,10,6,1,18,6,26,0.00,8,,253
2013-2-4,28,22,17,27,17,9,100,80,68,30.08,29.97,29.86,10,6,0,15,7,21,0.00,8,,222
2013-2-5,33,30,26,28,27,21,100,92,69,29.96,29.89,29.84,10,4,1,15,4,20,0.00,8,,258
2013-2-6,30,20,10,27,20,5,100,81,59,30.33,30.20,29.96,10,8,3,9,4,,0.00,5,,264
2013-2-7,42,25,8,28,20,3,100,77,53,30.30,30.17,29.97,10,8,4,9,2,,0.00,3,,101
2013-2-8,37,30,24,36,27,19,93,83,74,30.19,29.95,29.82,10,8,2,17,6,28,0.00,6,,247
2013-2-9,33,24,15,19,16,12,100,69,48,30.41,30.34,30.19,10,10,9,12,7,20,0.00,4,,298
2013-2-10,48,28,8,36,19,5,100,57,34,30.30,30.16,29.97,10,10,5,15,2,23,0.00,5,,140
2013-2-11,60,48,37,45,34,23,93,64,29,29.96,29.84,29.72,10,10,7,26,10,43,0.00,5,,221
2013-2-12,44,34,24,25,23,19,86,61,42,30.10,30.01,29.94,10,10,10,18,10,25,0.00,4,,257
2013-2-13,37,28,19,30,25,16,100,86,60,29.94,29.81,29.70,10,7,0,9,2,,0.00,6,,316
2013-2-14,42,34,26,34,28,23,93,79,57,29.97,29.93,29.89,10,8,4,14,7,20,0.00,7,,205
2013-2-15,37,32,26,34,28,21,100,83,65,30.07,30.02,29.94,10,8,0,12,5,16,0.00,6,,252
2013-2-16,28,22,15,21,16,10,100,75,51,30.07,30.00,29.94,10,9,3,13,4,20,0.00,7,,274
2013-2-17,21,16,10,18,10,3,93,72,49,30.26,30.09,29.94,10,7,0,16,10,23,0.00,8,,272
2013-2-18,44,24,3,28,14,0,100,66,39,30.29,30.16,29.90,10,10,10,12,3,16,0.00,0,,176
2013-2-19,44,34,24,37,27,14,93,73,46,29.97,29.83,29.71,10,10,2,23,12,33,0.00,7,,223
2013-2-20,23,20,17,18,11,9,86,70,58,30.23,30.12,29.97,10,9,2,18,13,28,0.00,8,,259
2013-2-21,26,22,19,16,13,10,80,70,55,30.35,30.27,30.20,10,10,5,10,7,,0.00,5,,308
2013-2-22,39,30,21,36,26,12,93,80,59,30.27,30.07,29.99,10,10,4,13,6,,0.00,7,,83
2013-2-23,44,35,26,36,31,25,100,86,61,30.01,29.93,29.88,10,8,4,10,1,,0.00,5,,289
2013-2-24,30,26,21,27,21,18,100,79,64,30.16,30.03,29.90,10,8,4,13,4,18,0.00,7,,256
2013-2-25,41,30,19,23,21,18,93,66,45,30.24,30.16,30.06,10,10,7,9,2,,0.00,2,,63
2013-2-26,39,31,23,36,27,18,100,79,49,30.07,29.82,29.58,10,9,2,15,5,25,0.00,5,,82
2013-2-27,42,38,33,37,35,30,100,89,76,29.71,29.65,29.57,10,10,4,16,8,25,0.00,8,,225
2013-2-28,33,32,30,30,29,27,93,87,80,29.84,29.71,29.65,10,7,1,13,9,18,0.00,8,,244